Time,TemperatureF,DewpointF,PressureIn,WindDirection,WindDirectionDegrees,WindSpeedMPH,WindSpeedGustMPH,Humidity,HourlyPrecipIn,Conditions,Clouds,dailyrainin,SoftwareType,DateUTC
2013-09-30 00:01:00,52.2,49.8,30.06,SE,141,0.0,0.0,92,0.00,,,0.00,meteobridge,2013-09-30 04:01:00,
2013-09-30 00:08:00,52.0,49.6,30.06,SE,141,0.0,0.0,92,0.00,,,0.00,meteobridge,2013-09-30 04:08:00,
2013-09-30 00:12:00,52.0,50.0,30.06,SE,141,0.0,0.0,93,0.00,,,0.00,meteobridge,2013-09-30 04:12:00,
2013-09-30 00:14:00,52.2,50.2,30.06,SE,141,0.0,0.0,93,0.00,,,0.00,meteobridge,2013-09-30 04:14:00,
2013-09-30 00:20:00,52.0,50.0,30.06,SE,143,0.0,0.0,93,0.00,,,0.00,meteobridge,2013-09-30 04:20:00,
2013-09-30 00:22:00,52.0,50.0,30.06,SE,143,0.0,0.0,93,0.00,,,0.00,meteobridge,2013-09-30 04:22:00,
2013-09-30 00:29:00,51.8,49.8,30.06,SE,143,0.0,0.0,93,0.00,,,0.00,meteobridge,2013-09-30 04:29:00,
2013-09-30 00:35:00,51.4,49.5,30.06,SE,143,0.0,0.0,93,0.00,,,0.00,meteobridge,2013-09-30 04:35:00,
2013-09-30 00:41:00,51.3,49.3,30.06,SE,143,0.0,0.0,93,0.00,,,0.00,meteobridge,2013-09-30 04:41:00,
2013-09-30 00:48:00,51.1,49.1,30.06,SE,143,0.0,0.0,93,0.00,,,0.00,meteobridge,2013-09-30 04:48:00,
2013-09-30 00:54:00,51.1,49.1,30.06,SE,143,0.0,0.0,93,0.00,,,0.00,meteobridge,2013-09-30 04:54:00,
2013-09-30 01:00:00,50.9,48.9,30.06,SE,143,0.0,0.0,93,0.00,,,0.00,meteobridge,2013-09-30 05:00:00,
2013-09-30 01:07:00,50.7,48.7,30.06,SE,143,0.0,0.0,93,0.00,,,0.00,meteobridge,2013-09-30 05:07:00,
2013-09-30 01:13:00,50.5,48.6,30.06,SE,143,0.0,0.0,93,0.00,,,0.00,meteobridge,2013-09-30 05:13:00,
2013-09-30 01:19:00,50.5,48.6,30.06,SE,143,0.0,0.0,93,0.00,,,0.00,meteobridge,2013-09-30 05:19:00,
2013-09-30 01:25:00,50.5,48.6,30.06,SE,143,0.0,0.0,93,0.00,,,0.00,meteobridge,2013-09-30 05:25:00,
2013-09-30 01:32:00,50.2,48.2,30.06,SE,140,0.0,0.0,93,0.00,,,0.00,meteobridge,2013-09-30 05:32:00,
2013-09-30 01:38:00,50.0,48.0,30.06,SE,140,0.0,0.0,93,0.00,,,0.00,meteobridge,2013-09-30 05:38:00,
2013-09-30 01:44:00,49.8,47.8,30.06,SE,141,0.0,0.0,93,0.00,,,0.00,meteobridge,2013-09-30 05:44:00,
2013-09-30 01:51:00,49.8,47.8,30.06,SE,141,0.0,0.0,93,0.00,,,0.00,meteobridge,2013-09-30 05:51:00,
2013-09-30 01:57:00,49.8,47.8,30.06,SE,141,0.0,0.0,93,0.00,,,0.00,meteobridge,2013-09-30 05:57:00,
2013-09-30 02:03:00,49.6,47.7,30.06,SE,139,0.0,0.0,93,0.00,,,0.00,meteobridge,2013-09-30 06:03:00,
2013-09-30 02:09:00,49.8,47.8,30.06,SE,139,0.0,0.0,93,0.00,,,0.00,meteobridge,2013-09-30 06:09:00,
2013-09-30 02:15:00,50.2,48.2,30.06,SE,139,0.0,0.0,93,0.00,,,0.00,meteobridge,2013-09-30 06:15:00,
2013-09-30 02:22:00,49.8,47.8,30.06,SE,139,0.0,0.0,93,0.00,,,0.00,meteobridge,2013-09-30 06:22:00,
2013-09-30 02:28:00,49.5,47.5,30.06,SE,141,0.0,0.0,93,0.00,,,0.00,meteobridge,2013-09-30 06:28:00,
2013-09-30 02:36:00,49.5,47.5,30.05,SE,139,0.0,0.0,93,0.00,,,0.00,meteobridge,2013-09-30 06:36:00,
2013-09-30 02:43:00,49.3,47.3,30.05,SE,139,0.0,0.0,93,0.00,,,0.00,meteobridge,2013-09-30 06:43:00,
2013-09-30 02:49:00,49.1,47.1,30.05,SE,141,0.0,0.0,93,0.00,,,0.00,meteobridge,2013-09-30 06:49:00,
2013-09-30 02:55:00,49.3,47.3,30.05,SE,141,0.0,0.0,93,0.00,,,0.00,meteobridge,2013-09-30 06:55:00,
2013-09-30 03:01:00,48.9,46.9,30.05,SE,141,0.0,0.0,93,0.00,,,0.00,meteobridge,2013-09-30 07:01:00,
2013-09-30 03:08:00,48.9,46.9,30.05,SE,141,0.0,0.0,93,0.00,,,0.00,meteobridge,2013-09-30 07:08:00,
2013-09-30 03:14:00,48.9,46.9,30.04,SE,139,0.0,0.0,93,0.00,,,0.00,meteobridge,2013-09-30 07:14:00,
2013-09-30 03:20:00,48.9,46.9,30.04,SE,139,0.0,0.0,93,0.00,,,0.00,meteobridge,2013-09-30 07:20:00,
2013-09-30 03:26:00,49.1,47.1,30.04,SE,141,0.0,0.0,93,0.00,,,0.00,meteobridge,2013-09-30 07:26:00,
2013-09-30 03:33:00,49.1,47.1,30.04,SE,140,0.0,0.0,93,0.00,,,0.00,meteobridge,2013-09-30 07:33:00,
2013-09-30 03:39:00,48.9,46.9,30.04,SE,139,0.0,0.0,93,0.00,,,0.00,meteobridge,2013-09-30 07:39:00,
2013-09-30 03:47:00,48.7,46.8,30.04,SE,141,0.0,0.0,93,0.00,,,0.00,meteobridge,2013-09-30 07:47:00,
2013-09-30 03:54:00,48.7,46.8,30.04,SE,141,0.0,0.0,93,0.00,,,0.00,meteobridge,2013-09-30 07:54:00,
2013-09-30 04:00:00,48.9,46.9,30.04,SE,141,0.0,0.0,93,0.00,,,0.00,meteobridge,2013-09-30 08:00:00,
2013-09-30 04:07:00,48.9,46.9,30.04,SE,141,0.0,0.0,93,0.00,,,0.00,meteobridge,2013-09-30 08:07:00,
2013-09-30 04:13:00,48.9,46.9,30.03,SE,141,0.0,0.0,93,0.00,,,0.00,meteobridge,2013-09-30 08:13:00,
2013-09-30 04:19:00,48.7,46.8,30.04,SE,141,0.0,0.0,93,0.00,,,0.00,meteobridge,2013-09-30 08:19:00,
2013-09-30 04:26:00,48.4,46.4,30.04,SE,141,0.0,0.0,93,0.00,,,0.00,meteobridge,2013-09-30 08:26:00,
2013-09-30 04:32:00,47.8,45.9,30.04,SE,141,0.0,0.0,93,0.00,,,0.00,meteobridge,2013-09-30 08:32:00,
2013-09-30 04:38:00,47.7,45.7,30.04,SE,141,0.0,0.0,93,0.00,,,0.00,meteobridge,2013-09-30 08:38:00,
2013-09-30 04:45:00,47.5,45.5,30.04,SE,141,0.0,0.0,93,0.00,,,0.00,meteobridge,2013-09-30 08:45:00,
2013-09-30 04:51:00,47.7,45.7,30.04,SE,141,0.0,0.0,93,0.00,,,0.00,meteobridge,2013-09-30 08:51:00,
2013-09-30 04:57:00,47.5,45.5,30.04,SE,141,0.0,0.0,93,0.00,,,0.00,meteobridge,2013-09-30 08:57:00,
2013-09-30 05:03:00,47.5,45.5,30.05,SE,141,0.0,0.0,93,0.00,,,0.00,meteobridge,2013-09-30 09:03:00,
2013-09-30 05:10:00,47.7,46.0,30.05,SE,141,0.0,0.0,94,0.00,,,0.00,meteobridge,2013-09-30 09:10:00,
2013-09-30 05:18:00,47.5,45.5,30.05,SE,141,0.0,0.0,93,0.00,,,0.00,meteobridge,2013-09-30 09:18:00,
2013-09-30 05:27:00,47.7,46.0,30.05,SE,141,0.0,0.0,94,0.00,,,0.00,meteobridge,2013-09-30 09:27:00,
2013-09-30 05:33:00,47.7,46.0,30.05,SE,141,0.0,0.0,94,0.00,,,0.00,meteobridge,2013-09-30 09:33:00,
2013-09-30 05:39:00,47.7,46.0,30.05,SE,141,0.0,0.0,94,0.00,,,0.00,meteobridge,2013-09-30 09:39:00,
2013-09-30 05:48:00,47.5,45.9,30.05,SE,141,0.0,0.0,94,0.01,,,0.01,meteobridge,2013-09-30 09:48:00,
2013-09-30 05:54:00,47.5,45.9,30.05,SE,141,0.0,0.0,94,0.01,,,0.01,meteobridge,2013-09-30 09:54:00,
2013-09-30 06:00:00,47.5,45.9,30.05,SE,141,0.0,0.0,94,0.01,,,0.01,meteobridge,2013-09-30 10:00:00,
2013-09-30 06:07:00,47.1,45.5,30.06,SE,141,0.0,0.0,94,0.01,,,0.01,meteobridge,2013-09-30 10:07:00,
2013-09-30 06:13:00,46.9,45.3,30.06,SE,141,0.0,0.0,94,0.01,,,0.01,meteobridge,2013-09-30 10:13:00,
2013-09-30 06:19:00,46.9,45.3,30.06,SE,141,0.0,0.0,94,0.01,,,0.01,meteobridge,2013-09-30 10:19:00,
2013-09-30 06:27:00,46.8,45.1,30.06,SE,141,0.0,0.0,94,0.01,,,0.01,meteobridge,2013-09-30 10:27:00,
2013-09-30 06:34:00,46.8,45.1,30.06,SE,141,0.0,0.0,94,0.01,,,0.01,meteobridge,2013-09-30 10:34:00,
2013-09-30 06:40:00,46.8,45.1,30.06,SE,141,0.0,0.0,94,0.01,,,0.01,meteobridge,2013-09-30 10:40:00,
2013-09-30 06:47:00,46.8,45.1,30.06,SE,141,0.0,0.0,94,0.00,,,0.01,meteobridge,2013-09-30 10:47:00,
2013-09-30 06:53:00,46.8,45.1,30.06,SE,141,0.0,0.0,94,0.00,,,0.01,meteobridge,2013-09-30 10:53:00,
2013-09-30 06:59:00,46.6,45.0,30.06,SE,141,0.0,0.0,94,0.00,,,0.01,meteobridge,2013-09-30 10:59:00,
2013-09-30 07:08:00,46.9,45.3,30.06,SE,141,0.0,0.0,94,0.00,,,0.01,meteobridge,2013-09-30 11:08:00,
2013-09-30 07:14:00,47.3,45.7,30.06,SE,141,0.0,0.0,94,0.00,,,0.01,meteobridge,2013-09-30 11:14:00,
2013-09-30 07:20:00,47.7,46.0,30.06,SE,141,0.0,0.0,94,0.00,,,0.01,meteobridge,2013-09-30 11:20:00,
2013-09-30 07:26:00,47.8,46.2,30.06,SE,141,0.0,0.0,94,0.00,,,0.01,meteobridge,2013-09-30 11:26:00,
2013-09-30 07:33:00,48.0,46.4,30.06,SE,141,0.0,0.0,94,0.00,,,0.01,meteobridge,2013-09-30 11:33:00,
2013-09-30 07:39:00,48.4,46.8,30.06,SE,141,0.0,0.0,94,0.00,,,0.01,meteobridge,2013-09-30 11:39:00,
2013-09-30 07:45:00,48.7,47.1,30.07,SE,141,0.0,0.0,94,0.00,,,0.01,meteobridge,2013-09-30 11:45:00,
2013-09-30 07:52:00,48.9,47.3,30.06,SE,141,0.0,0.0,94,0.00,,,0.01,meteobridge,2013-09-30 11:52:00,
2013-09-30 07:58:00,49.3,47.7,30.06,SE,141,0.0,0.0,94,0.00,,,0.01,meteobridge,2013-09-30 11:58:00,
2013-09-30 08:05:00,49.5,47.8,30.07,SE,141,0.0,0.0,94,0.00,,,0.01,meteobridge,2013-09-30 12:05:00,
2013-09-30 08:11:00,49.6,48.0,30.06,SE,141,0.0,0.0,94,0.00,,,0.01,meteobridge,2013-09-30 12:11:00,
2013-09-30 08:17:00,50.2,48.6,30.06,SE,141,0.0,0.0,94,0.00,,,0.01,meteobridge,2013-09-30 12:17:00,
2013-09-30 08:23:00,50.7,49.1,30.06,SE,141,0.0,0.0,94,0.00,,,0.01,meteobridge,2013-09-30 12:23:00,
2013-09-30 08:30:00,51.3,49.6,30.06,SE,141,0.0,0.0,94,0.00,,,0.01,meteobridge,2013-09-30 12:30:00,
2013-09-30 08:36:00,52.0,50.4,30.06,SE,141,0.0,0.0,94,0.00,,,0.01,meteobridge,2013-09-30 12:36:00,
2013-09-30 08:42:00,52.2,50.5,30.06,SE,143,0.0,0.0,94,0.00,,,0.01,meteobridge,2013-09-30 12:42:00,
2013-09-30 08:49:00,53.1,51.4,30.06,SE,143,0.0,0.0,94,0.00,,,0.01,meteobridge,2013-09-30 12:49:00,
2013-09-30 08:55:00,53.4,51.8,30.06,SE,143,0.0,0.0,94,0.00,,,0.01,meteobridge,2013-09-30 12:55:00,
2013-09-30 09:01:00,54.0,52.3,30.06,SE,143,0.0,0.0,94,0.00,,,0.01,meteobridge,2013-09-30 13:01:00,
2013-09-30 09:07:00,54.1,52.5,30.06,NNW,332,0.0,0.0,94,0.00,,,0.01,meteobridge,2013-09-30 13:07:00,
2013-09-30 09:14:00,54.5,52.9,30.06,NNW,333,0.0,0.0,94,0.00,,,0.01,meteobridge,2013-09-30 13:14:00,
2013-09-30 09:27:00,55.8,53.8,30.06,NNW,342,0.9,0.9,93,0.00,,,0.01,meteobridge,2013-09-30 13:27:00,
2013-09-30 09:33:00,56.7,54.1,30.06,WNW,291,0.9,0.9,91,0.00,,,0.01,meteobridge,2013-09-30 13:33:00,
2013-09-30 09:39:00,57.6,54.0,30.06,North,359,2.0,2.0,88,0.00,,,0.01,meteobridge,2013-09-30 13:39:00,
2013-09-30 09:46:00,58.6,54.5,30.06,NW,319,0.0,2.0,86,0.00,,,0.01,meteobridge,2013-09-30 13:46:00,
2013-09-30 09:52:00,60.1,54.9,30.06,NNW,328,0.0,0.9,83,0.00,,,0.01,meteobridge,2013-09-30 13:52:00,
2013-09-30 09:59:00,61.2,55.2,30.05,NW,304,0.0,0.9,81,0.00,,,0.01,meteobridge,2013-09-30 13:59:00,
2013-09-30 10:07:00,61.2,54.9,30.05,West,281,0.0,0.9,80,0.00,,,0.01,meteobridge,2013-09-30 14:07:00,
2013-09-30 10:13:00,61.9,55.2,30.05,SW,217,0.0,2.0,79,0.00,,,0.01,meteobridge,2013-09-30 14:13:00,
2013-09-30 10:20:00,62.6,55.6,30.05,NW,315,0.0,0.9,78,0.00,,,0.01,meteobridge,2013-09-30 14:20:00,
2013-09-30 10:26:00,63.1,55.4,30.05,West,272,2.0,2.9,76,0.00,,,0.01,meteobridge,2013-09-30 14:26:00,
2013-09-30 10:32:00,63.7,55.2,30.05,ESE,118,0.0,0.9,74,0.00,,,0.01,meteobridge,2013-09-30 14:32:00,
2013-09-30 10:38:00,64.0,54.5,30.05,WNW,294,2.0,4.9,71,0.00,,,0.01,meteobridge,2013-09-30 14:38:00,
2013-09-30 10:47:00,64.8,54.3,30.04,NW,320,2.0,4.9,69,0.00,,,0.01,meteobridge,2013-09-30 14:47:00,
2013-09-30 10:53:00,64.8,54.7,30.04,NNE,25,2.0,4.0,70,0.00,,,0.01,meteobridge,2013-09-30 14:53:00,
2013-09-30 10:59:00,64.8,54.7,30.04,West,274,2.9,2.9,70,0.00,,,0.01,meteobridge,2013-09-30 14:59:00,
2013-09-30 11:07:00,65.5,54.7,30.04,NW,326,2.0,4.0,68,0.00,,,0.01,meteobridge,2013-09-30 15:07:00,
2013-09-30 11:13:00,65.1,54.0,30.04,North,352,0.0,4.0,67,0.00,,,0.01,meteobridge,2013-09-30 15:13:00,
2013-09-30 11:20:00,65.5,55.0,30.03,ESE,118,0.0,0.9,69,0.00,,,0.01,meteobridge,2013-09-30 15:20:00,
2013-09-30 11:26:00,66.0,55.2,30.03,NNW,345,0.0,0.0,68,0.00,,,0.01,meteobridge,2013-09-30 15:26:00,
2013-09-30 11:32:00,66.4,54.7,30.03,East,87,0.0,0.9,66,0.00,,,0.01,meteobridge,2013-09-30 15:32:00,
2013-09-30 11:38:00,67.1,54.1,30.03,NE,41,0.9,6.9,63,0.00,,,0.01,meteobridge,2013-09-30 15:38:00,
2013-09-30 11:44:00,67.3,54.3,30.03,NNW,333,0.0,2.0,63,0.00,,,0.01,meteobridge,2013-09-30 15:44:00,
2013-09-30 11:50:00,67.6,54.1,30.03,ESE,113,0.0,0.9,62,0.00,,,0.01,meteobridge,2013-09-30 15:50:00,
2013-09-30 11:56:00,68.0,53.6,30.03,WNW,293,0.0,0.0,60,0.00,,,0.01,meteobridge,2013-09-30 15:56:00,
2013-09-30 12:02:00,68.0,53.1,30.03,WNW,294,0.9,2.9,59,0.00,,,0.01,meteobridge,2013-09-30 16:02:00,
2013-09-30 12:09:00,68.2,54.1,30.02,SE,135,0.9,2.0,61,0.00,,,0.01,meteobridge,2013-09-30 16:09:00,
2013-09-30 12:17:00,68.9,54.0,30.02,West,277,0.0,0.0,59,0.00,,,0.01,meteobridge,2013-09-30 16:17:00,
2013-09-30 12:23:00,68.2,52.9,30.02,West,260,0.0,0.0,58,0.00,,,0.01,meteobridge,2013-09-30 16:23:00,
2013-09-30 12:30:00,68.2,53.8,30.01,West,278,0.0,0.0,60,0.00,,,0.01,meteobridge,2013-09-30 16:30:00,
2013-09-30 12:36:00,68.4,53.4,30.01,SE,127,0.0,0.9,59,0.00,,,0.01,meteobridge,2013-09-30 16:36:00,
2013-09-30 12:43:00,69.1,52.7,30.01,West,280,0.9,2.0,56,0.00,,,0.01,meteobridge,2013-09-30 16:43:00,
2013-09-30 12:49:00,69.3,52.3,30.01,SSW,195,2.9,4.0,55,0.00,,,0.01,meteobridge,2013-09-30 16:49:00,
2013-09-30 12:55:00,70.2,54.1,30.01,ENE,77,0.0,4.0,57,0.00,,,0.01,meteobridge,2013-09-30 16:55:00,
2013-09-30 13:02:00,70.2,52.2,30.00,ENE,64,0.0,2.0,53,0.00,,,0.01,meteobridge,2013-09-30 17:02:00,
2013-09-30 13:08:00,69.1,52.2,30.00,North,349,0.0,2.9,55,0.00,,,0.01,meteobridge,2013-09-30 17:08:00,
2013-09-30 13:14:00,68.2,51.8,30.00,West,259,0.9,2.9,56,0.00,,,0.01,meteobridge,2013-09-30 17:14:00,
2013-09-30 13:20:00,68.2,52.3,30.00,WNW,295,0.9,2.0,57,0.00,,,0.01,meteobridge,2013-09-30 17:20:00,
2013-09-30 13:26:00,69.3,52.9,30.00,WNW,288,2.0,4.0,56,0.00,,,0.01,meteobridge,2013-09-30 17:26:00,
2013-09-30 13:33:00,69.4,51.6,29.99,West,274,2.0,2.0,53,0.00,,,0.01,meteobridge,2013-09-30 17:33:00,
2013-09-30 13:39:00,70.5,53.6,29.99,East,86,0.9,0.9,55,0.00,,,0.01,meteobridge,2013-09-30 17:39:00,
2013-09-30 13:45:00,71.4,52.9,29.99,East,89,0.0,2.9,52,0.00,,,0.01,meteobridge,2013-09-30 17:45:00,
2013-09-30 13:51:00,70.9,52.9,29.99,ENE,75,0.0,0.9,53,0.00,,,0.01,meteobridge,2013-09-30 17:51:00,
2013-09-30 13:58:00,69.8,52.9,29.99,East,90,0.0,2.0,55,0.00,,,0.01,meteobridge,2013-09-30 17:58:00,
2013-09-30 14:04:00,68.9,52.5,29.99,ENE,77,0.0,2.0,56,0.00,,,0.01,meteobridge,2013-09-30 18:04:00,
2013-09-30 14:10:00,68.2,52.9,29.99,East,81,0.0,0.9,58,0.00,,,0.01,meteobridge,2013-09-30 18:10:00,
2013-09-30 14:17:00,67.8,52.5,29.99,East,98,0.0,0.9,58,0.00,,,0.01,meteobridge,2013-09-30 18:17:00,
2013-09-30 14:23:00,68.0,52.7,29.99,NE,41,0.0,0.9,58,0.00,,,0.01,meteobridge,2013-09-30 18:23:00,
2013-09-30 14:29:00,69.1,52.2,29.98,NW,320,2.0,2.0,55,0.00,,,0.01,meteobridge,2013-09-30 18:29:00,
2013-09-30 14:38:00,70.2,50.2,29.98,WNW,287,2.9,2.9,49,0.00,,,0.01,meteobridge,2013-09-30 18:38:00,
2013-09-30 14:44:00,69.8,51.4,29.98,ESE,121,0.0,2.0,52,0.00,,,0.01,meteobridge,2013-09-30 18:44:00,
2013-09-30 14:50:00,71.1,50.9,29.98,North,355,0.0,2.0,49,0.00,,,0.01,meteobridge,2013-09-30 18:50:00,
2013-09-30 14:56:00,71.6,52.0,29.98,East,99,0.9,2.0,50,0.00,,,0.01,meteobridge,2013-09-30 18:56:00,
2013-09-30 15:02:00,71.2,51.6,29.98,SSE,162,0.9,0.9,50,0.00,,,0.01,meteobridge,2013-09-30 19:02:00,
2013-09-30 15:09:00,72.0,51.8,29.97,SW,233,2.0,2.0,49,0.00,,,0.01,meteobridge,2013-09-30 19:09:00,
2013-09-30 15:15:00,71.6,51.4,29.97,ENE,77,0.0,2.9,49,0.00,,,0.01,meteobridge,2013-09-30 19:15:00,
2013-09-30 15:21:00,71.2,51.1,29.97,ESE,113,0.0,0.0,49,0.00,,,0.01,meteobridge,2013-09-30 19:21:00,
2013-09-30 15:27:00,71.6,52.5,29.97,ESE,103,0.0,0.0,51,0.00,,,0.01,meteobridge,2013-09-30 19:27:00,
2013-09-30 15:33:00,72.5,50.5,29.97,East,96,0.0,2.0,46,0.00,,,0.01,meteobridge,2013-09-30 19:33:00,
2013-09-30 15:40:00,73.9,51.8,29.97,SE,127,0.0,0.0,46,0.00,,,0.01,meteobridge,2013-09-30 19:40:00,
2013-09-30 15:48:00,74.1,51.4,29.97,North,359,2.9,4.9,45,0.00,,,0.01,meteobridge,2013-09-30 19:48:00,
2013-09-30 15:54:00,72.5,50.5,29.97,West,273,0.9,2.0,46,0.00,,,0.01,meteobridge,2013-09-30 19:54:00,
2013-09-30 16:00:00,70.9,51.3,29.97,NNW,340,0.9,2.0,50,0.00,,,0.01,meteobridge,2013-09-30 20:00:00,
2013-09-30 16:07:00,69.8,51.4,29.97,WNW,283,0.0,2.0,52,0.00,,,0.01,meteobridge,2013-09-30 20:07:00,
2013-09-30 16:13:00,70.2,51.8,29.96,WSW,239,0.0,2.0,52,0.00,,,0.01,meteobridge,2013-09-30 20:13:00,
2013-09-30 16:20:00,70.7,51.6,29.96,NNW,340,0.0,0.9,51,0.00,,,0.01,meteobridge,2013-09-30 20:20:00,
2013-09-30 16:28:00,71.1,50.9,29.96,NW,326,2.0,2.9,49,0.00,,,0.01,meteobridge,2013-09-30 20:28:00,
2013-09-30 16:34:00,71.1,51.4,29.96,West,259,0.9,0.9,50,0.00,,,0.01,meteobridge,2013-09-30 20:34:00,
2013-09-30 16:40:00,71.8,52.2,29.96,NW,307,2.0,2.0,50,0.00,,,0.01,meteobridge,2013-09-30 20:40:00,
2013-09-30 16:47:00,72.0,51.3,29.96,ESE,121,0.9,0.9,48,0.00,,,0.01,meteobridge,2013-09-30 20:47:00,
2013-09-30 16:53:00,71.4,50.2,29.96,NW,318,2.0,2.0,47,0.00,,,0.01,meteobridge,2013-09-30 20:53:00,
2013-09-30 16:59:00,71.2,52.2,29.96,NW,311,0.0,0.0,51,0.00,,,0.01,meteobridge,2013-09-30 20:59:00,
2013-09-30 17:08:00,71.2,51.6,29.96,NW,311,0.0,0.0,50,0.00,,,0.01,meteobridge,2013-09-30 21:08:00,
2013-09-30 17:14:00,70.5,51.4,29.96,NW,311,0.0,0.0,51,0.00,,,0.01,meteobridge,2013-09-30 21:14:00,
2013-09-30 17:20:00,70.2,51.8,29.96,NNW,346,0.0,0.9,52,0.00,,,0.01,meteobridge,2013-09-30 21:20:00,
2013-09-30 17:26:00,69.4,51.1,29.96,NNW,329,0.9,2.9,52,0.00,,,0.01,meteobridge,2013-09-30 21:26:00,
2013-09-30 17:32:00,68.4,50.5,29.96,NNW,340,0.0,2.0,53,0.00,,,0.01,meteobridge,2013-09-30 21:32:00,
2013-09-30 17:38:00,67.6,50.4,29.96,NW,316,2.0,2.9,54,0.00,,,0.01,meteobridge,2013-09-30 21:38:00,
2013-09-30 17:47:00,67.3,51.4,29.96,North,349,0.0,0.0,57,0.00,,,0.01,meteobridge,2013-09-30 21:47:00,
2013-09-30 17:53:00,66.6,50.9,29.96,NW,316,0.0,0.9,57,0.00,,,0.01,meteobridge,2013-09-30 21:53:00,
2013-09-30 18:00:00,66.4,51.6,29.96,NW,316,0.0,0.0,59,0.00,,,0.01,meteobridge,2013-09-30 22:00:00,
2013-09-30 18:08:00,65.5,51.6,29.96,NW,316,0.0,0.0,61,0.00,,,0.01,meteobridge,2013-09-30 22:08:00,
2013-09-30 18:15:00,65.3,51.4,29.96,NW,316,0.0,0.0,61,0.00,,,0.01,meteobridge,2013-09-30 22:15:00,
2013-09-30 18:21:00,64.2,52.2,29.96,NW,316,0.0,0.0,65,0.00,,,0.01,meteobridge,2013-09-30 22:21:00,
2013-09-30 18:27:00,63.5,50.7,29.96,NW,316,0.0,0.0,63,0.00,,,0.01,meteobridge,2013-09-30 22:27:00,
2013-09-30 18:33:00,63.1,51.3,29.96,NW,318,0.0,0.0,65,0.00,,,0.01,meteobridge,2013-09-30 22:33:00,
2013-09-30 18:40:00,62.6,51.1,29.96,NW,321,0.0,0.0,66,0.00,,,0.01,meteobridge,2013-09-30 22:40:00,
2013-09-30 18:48:00,61.5,50.9,29.96,NNW,328,0.0,0.0,68,0.00,,,0.01,meteobridge,2013-09-30 22:48:00,
2013-09-30 18:54:00,61.3,51.1,29.96,NNW,327,0.0,0.0,69,0.00,,,0.01,meteobridge,2013-09-30 22:54:00,
2013-09-30 19:00:00,61.2,51.3,29.96,NNW,327,0.0,0.0,70,0.00,,,0.01,meteobridge,2013-09-30 23:00:00,
2013-09-30 19:07:00,60.4,51.8,29.96,NNW,327,0.0,0.0,73,0.00,,,0.01,meteobridge,2013-09-30 23:07:00,
2013-09-30 19:13:00,60.3,52.0,29.96,NNW,327,0.0,0.0,74,0.00,,,0.01,meteobridge,2013-09-30 23:13:00,
2013-09-30 19:19:00,59.5,51.3,29.96,NNW,328,0.0,0.0,74,0.00,,,0.01,meteobridge,2013-09-30 23:19:00,
2013-09-30 19:27:00,58.8,50.9,29.97,NNW,328,0.0,0.0,75,0.00,,,0.01,meteobridge,2013-09-30 23:27:00,
2013-09-30 19:34:00,58.5,51.6,29.97,NNW,328,0.0,0.0,78,0.00,,,0.01,meteobridge,2013-09-30 23:34:00,
2013-09-30 19:40:00,57.9,51.4,29.97,NNW,327,0.0,0.0,79,0.00,,,0.01,meteobridge,2013-09-30 23:40:00,
2013-09-30 19:46:00,57.7,51.3,29.97,NNW,327,0.0,0.0,79,0.00,,,0.01,meteobridge,2013-09-30 23:46:00,
2013-09-30 19:52:00,57.0,51.3,29.97,NNW,328,0.0,0.0,81,0.00,,,0.01,meteobridge,2013-09-30 23:52:00,
2013-09-30 19:58:00,56.8,51.8,29.97,NNW,328,0.0,0.0,83,0.00,,,0.01,meteobridge,2013-09-30 23:58:00,
2013-09-30 20:07:00,56.5,51.6,29.97,NNW,328,0.0,0.0,84,0.00,,,0.01,meteobridge,2013-10-01 00:07:00,
2013-09-30 20:13:00,56.1,51.6,29.98,NNW,328,0.0,0.0,85,0.00,,,0.01,meteobridge,2013-10-01 00:13:00,
2013-09-30 20:19:00,55.9,52.2,29.98,NNW,328,0.0,0.0,87,0.00,,,0.01,meteobridge,2013-10-01 00:19:00,
2013-09-30 20:27:00,55.9,52.5,29.98,NNW,328,0.0,0.0,88,0.00,,,0.01,meteobridge,2013-10-01 00:27:00,
2013-09-30 20:33:00,55.9,52.5,29.98,NNW,328,0.0,0.0,88,0.00,,,0.01,meteobridge,2013-10-01 00:33:00,
2013-09-30 20:40:00,55.9,52.5,29.98,NNW,328,0.0,0.0,88,0.00,,,0.01,meteobridge,2013-10-01 00:40:00,
2013-09-30 20:48:00,55.9,52.5,29.98,NNW,327,0.0,0.0,88,0.00,,,0.01,meteobridge,2013-10-01 00:48:00,
2013-09-30 20:54:00,55.9,52.2,29.98,NNW,327,0.0,0.0,87,0.00,,,0.01,meteobridge,2013-10-01 00:54:00,
2013-09-30 21:00:00,55.6,51.8,29.98,NNW,327,0.0,0.0,87,0.00,,,0.01,meteobridge,2013-10-01 01:00:00,
2013-09-30 21:06:00,55.6,51.8,29.98,NNW,327,0.0,0.0,87,0.00,,,0.01,meteobridge,2013-10-01 01:06:00,
2013-09-30 21:13:00,55.6,51.8,29.98,NNW,327,0.0,0.0,87,0.00,,,0.01,meteobridge,2013-10-01 01:13:00,
2013-09-30 21:19:00,55.2,51.4,29.98,NNW,328,0.0,0.0,87,0.00,,,0.01,meteobridge,2013-10-01 01:19:00,
2013-09-30 21:27:00,55.2,51.4,29.98,NNW,327,0.0,0.0,87,0.00,,,0.01,meteobridge,2013-10-01 01:27:00,
2013-09-30 21:33:00,55.0,51.3,29.98,NNW,328,0.0,0.0,87,0.00,,,0.01,meteobridge,2013-10-01 01:33:00,
2013-09-30 21:40:00,54.9,51.4,29.98,NNW,328,0.0,0.0,88,0.00,,,0.01,meteobridge,2013-10-01 01:40:00,
2013-09-30 21:48:00,54.3,51.4,29.98,NNW,328,0.0,0.0,90,0.00,,,0.01,meteobridge,2013-10-01 01:48:00,
2013-09-30 21:54:00,54.1,51.3,29.98,NNW,328,0.0,0.0,90,0.00,,,0.01,meteobridge,2013-10-01 01:54:00,
2013-09-30 22:01:00,53.8,50.9,29.98,NNW,328,0.0,0.0,90,0.00,,,0.01,meteobridge,2013-10-01 02:01:00,
2013-09-30 22:07:00,54.0,51.1,29.98,NNW,328,0.0,0.0,90,0.00,,,0.01,meteobridge,2013-10-01 02:07:00,
2013-09-30 22:13:00,53.8,50.9,29.98,NNW,328,0.0,0.0,90,0.00,,,0.01,meteobridge,2013-10-01 02:13:00,
2013-09-30 22:19:00,53.8,51.3,29.98,NNW,329,0.0,0.0,91,0.00,,,0.01,meteobridge,2013-10-01 02:19:00,
2013-09-30 22:25:00,53.8,51.3,29.98,NNW,328,0.0,0.0,91,0.00,,,0.01,meteobridge,2013-10-01 02:25:00,
2013-09-30 22:32:00,53.4,50.9,29.98,NNW,328,0.0,0.0,91,0.00,,,0.01,meteobridge,2013-10-01 02:32:00,
2013-09-30 22:38:00,53.4,51.1,29.98,NNW,328,0.0,0.0,92,0.00,,,0.01,meteobridge,2013-10-01 02:38:00,
2013-09-30 22:44:00,53.4,50.9,29.98,NNW,329,0.0,0.0,91,0.00,,,0.01,meteobridge,2013-10-01 02:44:00,
2013-09-30 22:50:00,53.6,51.1,29.98,NNW,329,0.0,0.0,91,0.00,,,0.01,meteobridge,2013-10-01 02:50:00,
2013-09-30 22:56:00,53.8,51.3,29.98,NNW,329,0.0,0.0,91,0.00,,,0.01,meteobridge,2013-10-01 02:56:00,
2013-09-30 23:03:00,54.0,51.1,29.98,NNW,328,0.0,0.0,90,0.00,,,0.01,meteobridge,2013-10-01 03:03:00,
2013-09-30 23:09:00,53.8,50.9,29.98,NNW,328,0.0,0.0,90,0.00,,,0.01,meteobridge,2013-10-01 03:09:00,
2013-09-30 23:15:00,54.0,51.1,29.98,NNW,328,0.0,0.0,90,0.00,,,0.01,meteobridge,2013-10-01 03:15:00,
2013-09-30 23:21:00,54.0,50.7,29.98,NNW,329,0.0,0.0,89,0.00,,,0.01,meteobridge,2013-10-01 03:21:00,
2013-09-30 23:28:00,53.4,50.5,29.98,NNW,329,0.0,0.0,90,0.00,,,0.01,meteobridge,2013-10-01 03:28:00,
2013-09-30 23:34:00,53.2,50.7,29.98,NNW,328,0.0,0.0,91,0.00,,,0.01,meteobridge,2013-10-01 03:34:00,
2013-09-30 23:40:00,53.1,50.5,29.98,NNW,329,0.0,0.0,91,0.00,,,0.01,meteobridge,2013-10-01 03:40:00,
2013-09-30 23:47:00,53.1,50.7,29.98,NNW,328,0.0,0.0,92,0.00,,,0.01,meteobridge,2013-10-01 03:47:00,
2013-09-30 23:53:00,53.2,50.9,29.98,NNW,329,0.0,0.0,92,0.00,,,0.01,meteobridge,2013-10-01 03:53:00,
2013-09-30 23:59:00,53.1,50.7,29.98,NNW,329,0.0,0.0,92,0.00,,,0.01,meteobridge,2013-10-01 03:59:00,